Location: Unspecified
(35.7250°N, 0.0000°E)
Time: 23:50:40
(UTC+00:00)

Explorer 7 - Pass Details

Date: 21 June 2019
Orbit: 485 x 680 km, 50.3° (Epoch: 13 October)

Event Time Altitude Azimuth Distance (km) Brightness Sun altitude
Rises 15:16:06 0° 310° (NW) 2,997 11.0 46.5°
Reaches altitude 10° 15:18:26 10° 312° (NW) 2,098 10.4 46.0°
Maximum altitude 15:23:19 76° 39° (NE) 700 8.0 45.0°
Drops below altitude 10° 15:28:14 10° 125° (SE) 2,108 9.5 44.0°
Sets 15:30:35 0° 127° (SE) 3,011 10.2 43.5°
